User: anonymous   Login
Location: Bishop's University Astronomical Observatory
(45.3661°N, 71.8475°W)
Time: 15:59:33
(UTC-04:00)
Language:

Meteor 2-5 Rocket - Orbit

View from above orbital plane
View from above orbital plane
View from above satellite
View from above satellite

Ground track
Ground track

The orbit data is extracted from the following two-line orbital elements,

1 11608U 79095B   15187.15777871  .00000238  00000-0  13590-3 0  9995
2 11608 081.2123 181.9350 0054672 003.6022 356.5529 14.06069176830016
Epoch (UTC): 06 July 2015 03:47:12
Eccentricity: 0.0054672
inclination: 81.2123°
perigee height: 833 km
apogee height: 912 km
right ascension of ascending node: 181.9350°
argument of perigee: 3.6022°
revolutions per day: 14.06069176
mean anomaly at epoch: 356.5529°
orbit number at epoch: 83001

The dashed part of the orbit path shows where the satellite is in the earth's shadow,  

DLR